1494810000.36,60189,16.06,74300.8,-3.77,-34.13,-34.31,0,*55
1494810001.63,60190,16.13,74302.0,-3.77,-34.01,-34.19,0,*54
1494810002.91,60191,16.13,74300.0,-3.77,-34.01,-34.19,0,*55
1494810004.14,60192,16.13,74302.0,-3.77,-33.95,-34.13,0,*56
1494810005.37,60193,16.06,74300.0,-3.75,-34.07,-34.31,0,*59
1494810006.66,60194,16.13,74300.0,-3.77,-34.31,-34.53,0,*5D
1494810007.91,60195,16.06,74300.0,-3.77,-34.13,-34.35,0,*5C
1494810009.16,60196,16.13,74300.8,-3.77,-34.13,-34.31,0,*5B
1494810010.42,60197,16.13,74302.5,-3.77,-34.31,-34.47,0,*5B
1494810011.68,60198,16.06,74302.5,-3.77,-34.31,-34.47,0,*54
1494810012.94,60199,16.06,74300.3,-3.77,-34.19,-34.47,0,*5F
1494810014.22,60200,16.13,74300.0,-3.77,-34.01,-34.31,0,*54
1494810015.45,60201,16.06,74302.0,-3.75,-34.07,-34.31,0,*51
1494810016.7,60202,16.13,74300.8,-3.77,-34.13,-34.35,0,*51
1494810017.99,60203,16.06,74298.0,-3.77,-34.35,-34.65,0,*51
1494810019.25,60204,16.06,74298.5,-3.77,-34.31,-34.47,0,*52
1494810020.51,60205,16.06,74298.0,-3.77,-34.31,-34.47,0,*53
1494810021.79,60206,16.06,74298.0,-3.77,-34.31,-34.35,0,*55
1494810023.04,60207,16.06,74296.5,-3.79,-34.01,-34.31,0,*5D
1494810024.32,60208,16.13,74300.8,-3.77,-34.19,-34.35,0,*51
1494810025.58,60209,16.06,74300.0,-3.77,-34.31,-34.47,0,*5F
1494810026.86,60210,16.13,74300.8,-3.77,-34.31,-34.35,0,*52
1494810028.12,60211,16.06,74300.5,-3.77,-34.31,-34.47,0,*56
1494810029.38,60212,16.06,74300.0,-3.79,-34.19,-34.53,0,*54
1494810030.62,60213,16.06,74300.3,-3.79,-34.47,-34.53,0,*5E
1494810031.88,60214,16.06,74302.3,-3.77,-34.35,-34.47,0,*57
1494810033.11,60215,16.06,74302.0,-3.79,-34.01,-34.13,0,*5E
1494810034.37,60216,16.13,74302.8,-3.79,-34.01,-34.19,0,*57
1494810035.62,60217,16.06,74302.5,-3.79,-34.31,-34.35,0,*5B
1494810036.87,60218,16.06,74300.0,-3.79,-34.19,-34.31,0,*5A
1494810038.12,60219,16.06,74298.3,-3.77,-34.13,-34.35,0,*5B
1494810039.38,60220,16.13,74300.0,-3.79,-34.19,-34.35,0,*55
1494810040.64,60221,16.13,74300.0,-3.79,-34.31,-34.53,0,*5E
1494810041.9,60222,16.06,74296.8,-3.77,-34.31,-34.47,0,*56
1494810043.12,60223,16.06,74292.8,-3.79,-33.95,-34.19,0,*5B
1494810044.37,60224,16.06,74294.8,-3.79,-34.19,-34.31,0,*55
1494810045.58,60225,16.13,74298.0,-3.79,-33.95,-34.13,0,*57
1494810046.8,60226,16.06,74296.8,-3.79,-33.95,-34.19,0,*5E
1494810048.03,60227,16.06,74296.0,-3.79,-34.13,-34.35,0,*58
1494810049.29,60228,16.06,74298.0,-3.79,-34.01,-34.01,0,*53
1494810050.54,60229,16.06,74298.8,-3.79,-34.19,-34.31,0,*58
1494810051.75,60230,16.13,74298.0,-3.79,-33.83,-34.13,0,*54
1494810052.99,60231,16.06,74296.3,-3.79,-33.83,-34.01,0,*56
1494810054.21,60232,16.13,74298.5,-3.79,-33.95,-34.19,0,*5B
1494810055.47,60233,16.13,74298.8,-3.79,-34.01,-34.31,0,*5A
1494810056.69,60234,16.13,74298.5,-3.79,-33.83,-34.19,0,*5A
1494810057.92,60235,16.06,74298.3,-3.79,-33.95,-34.19,0,*5C
1494810059.12,60236,16.06,74298.5,-3.79,-33.95,-34.13,0,*55
1494810060.36,60237,16.06,74298.0,-3.79,-33.73,-34.13,0,*5C
1494810061.56,60238,16.06,74296.0,-3.79,-33.83,-34.13,0,*5C
1494810062.79,60239,16.06,74298.5,-3.77,-33.83,-34.13,0,*53
1494810064.0,60240,16.06,74298.3,-3.79,-33.83,-34.13,0,*53
1494810065.24,60241,16.06,74298.8,-3.79,-34.01,-34.13,0,*5F
1494810066.46,60242,16.06,74298.3,-3.77,-33.95,-34.13,0,*58
1494810067.74,60243,16.06,74296.8,-3.77,-34.01,-34.19,0,*59
1494810068.95,60244,16.06,74296.3,-3.79,-33.83,-34.13,0,*57
1494810070.2,60245,16.06,74296.3,-3.79,-34.01,-34.19,0,*51
1494810071.43,60246,16.06,74296.0,-3.79,-34.13,-34.35,0,*5F
1494810072.69,60247,16.13,74298.5,-3.77,-33.73,-33.95,0,*5C
1494810073.98,60248,16.06,74296.3,-3.77,-33.73,-34.01,0,*59
1494810075.24,60249,16.06,74294.8,-3.79,-33.77,-34.01,0,*52
1494810076.46,60250,16.06,74294.5,-3.79,-33.95,-34.19,0,*5F
1494810077.66,60251,16.06,74296.0,-3.79,-33.55,-33.83,0,*56
1494810078.86,60252,16.06,74294.3,-3.79,-33.95,-33.95,0,*5E
1494810080.15,60253,16.06,74292.5,-3.77,-33.77,-34.01,0,*57
1494810081.41,60254,16.06,74294.5,-3.79,-33.73,-34.01,0,*5A
1494810082.64,60255,16.13,74296.3,-3.79,-33.77,-33.95,0,*55
1494810083.9,60256,16.13,74296.5,-3.77,-33.73,-33.83,0,*5B
1494810085.13,60257,16.06,74294.8,-3.79,-34.13,-34.35,0,*5F
1494810086.34,60258,16.06,74294.5,-3.79,-33.83,-34.13,0,*5A
1494810087.57,60259,16.13,74298.3,-3.79,-33.83,-34.01,0,*58
1494810088.81,60260,16.06,74294.8,-3.79,-33.73,-33.95,0,*57
1494810090.08,60261,16.06,74292.0,-3.77,-34.01,-34.19,0,*59
1494810091.34,60262,16.13,74300.3,-3.79,-34.01,-34.31,0,*5E
1494810092.62,60263,16.06,74296.0,-3.77,-34.01,-34.31,0,*51
1494810093.87,60264,16.06,74300.3,-3.77,-33.95,-34.19,0,*56
1494810095.07,60265,16.06,74298.5,-3.79,-33.83,-34.13,0,*54
1494810096.3,60266,16.06,74300.8,-3.79,-33.77,-33.95,0,*55
1494810097.54,60267,16.06,74298.3,-3.79,-33.73,-33.83,0,*57
1494810098.79,60268,16.06,74294.8,-3.79,-33.43,-33.73,0,*54
1494810100.03,60269,16.06,74298.3,-3.79,-33.83,-34.01,0,*5B
1494810101.26,60270,16.06,74300.8,-3.79,-33.55,-33.77,0,*5E
1494810102.5,60271,16.06,74298.5,-3.77,-33.95,-34.19,0,*52
1494810103.76,60272,16.06,74296.0,-3.77,-33.83,-34.19,0,*56
1494810104.99,60273,16.13,74296.3,-3.79,-33.83,-34.01,0,*50
1494810106.25,60274,16.13,74296.8,-3.77,-34.01,-34.13,0,*57
1494810107.48,60275,16.06,74298.0,-3.77,-33.83,-34.13,0,*5B
1494810108.71,60276,16.06,74296.8,-3.79,-33.95,-34.01,0,*52
1494810109.97,60277,16.13,74300.0,-3.79,-33.77,-34.01,0,*5F
1494810111.23,60278,16.13,74300.3,-3.79,-33.77,-34.01,0,*50
1494810112.44,60279,16.13,74300.5,-3.79,-33.95,-34.13,0,*5E
1494810113.67,60280,16.06,74296.8,-3.79,-33.73,-33.95,0,*59
1494810114.9,60281,16.06,74298.5,-3.77,-33.95,-34.13,0,*57
1494810116.13,60282,16.06,74302.0,-3.79,-33.55,-33.77,0,*53
1494810117.42,60283,16.06,74296.8,-3.77,-33.73,-34.01,0,*5E
1494810118.65,60284,16.06,74302.8,-3.79,-33.73,-33.95,0,*5D
1494810119.94,60285,16.06,74300.0,-3.77,-33.73,-34.01,0,*58
1494810121.19,60286,16.06,74300.8,-3.79,-34.01,-34.19,0,*5E
1494810122.43,60287,16.06,74302.3,-3.79,-33.73,-33.83,0,*59
1494810123.66,60288,16.06,74302.0,-3.79,-33.73,-33.95,0,*51
1494810124.89,60289,16.06,74304.0,-3.79,-33.95,-34.19,0,*5B
1494810126.11,60290,16.06,74302.8,-3.77,-33.95,-34.13,0,*57
1494810127.36,60291,16.06,74300.5,-3.77,-33.61,-33.95,0,*54
1494810128.59,60292,16.06,74302.3,-3.79,-33.95,-34.19,0,*51
1494810129.81,60293,16.06,74306.3,-3.77,-33.95,-34.13,0,*54
1494810131.02,60294,16.06,74300.8,-3.79,-33.83,-34.13,0,*5A
1494810132.28,60295,16.06,74300.0,-3.79,-33.77,-34.01,0,*53
1494810133.52,60296,16.06,74300.3,-3.79,-33.83,-34.01,0,*5B
1494810134.77,60297,16.06,74300.5,-3.77,-33.83,-34.19,0,*5D
1494810135.98,60298,16.06,74300.5,-3.79,-33.83,-34.13,0,*56
1494810137.2,60299,16.06,74300.0,-3.79,-33.95,-34.31,0,*50
1494810138.4,60300,16.06,74298.8,-3.79,-33.95,-34.13,0,*51
1494810139.63,60301,16.06,74296.5,-3.79,-33.95,-34.19,0,*5A
1494810140.87,60302,16.06,74298.5,-3.81,-33.89,-34.25,0,*5C
1494810142.1,60303,16.06,74292.3,-3.79,-33.95,-34.19,0,*58
1494810143.32,60304,16.13,74296.5,-3.79,-33.95,-34.19,0,*5F
1494810144.53,60305,16.06,74296.5,-3.79,-33.83,-34.13,0,*53
1494810145.78,60306,16.06,74298.0,-3.79,-34.01,-34.19,0,*57
1494810147.01,60307,16.06,74300.0,-3.79,-34.13,-34.35,0,*5B
1494810148.24,60308,16.06,74298.0,-3.79,-34.13,-34.35,0,*54
1494810149.49,60309,16.06,74302.3,-3.79,-34.19,-34.35,0,*5F
1494810150.74,60310,16.06,74300.5,-3.81,-34.25,-34.35,0,*5F
1494810152.02,60311,16.06,74300.5,-3.81,-33.89,-34.19,0,*51
1494810153.29,60312,16.06,74300.0,-3.81,-33.89,-34.19,0,*52
1494810154.55,60313,16.06,74296.8,-3.81,-33.83,-34.19,0,*59
1494810155.77,60314,16.06,74298.3,-3.79,-33.95,-34.19,0,*5E
1494810157.03,60315,16.06,74300.8,-3.79,-34.01,-34.35,0,*5B
1494810158.28,60316,16.06,74298.3,-3.81,-33.77,-34.07,0,*58
1494810159.56,60317,16.06,74292.8,-3.81,-33.89,-34.35,0,*59
1494810160.83,60318,16.06,74294.3,-3.81,-33.89,-34.19,0,*58
1494810162.11,60319,16.06,74298.0,-3.81,-33.77,-34.19,0,*58
1494810163.37,60320,16.06,74298.3,-3.81,-33.83,-34.19,0,*59
1494810164.64,60321,16.06,74302.0,-3.81,-33.89,-34.19,0,*52
1494810165.92,60322,16.06,74296.0,-3.81,-33.89,-34.19,0,*51
1494810167.12,60323,16.06,74298.0,-3.79,-33.83,-34.13,0,*57
1494810168.33,60324,16.06,74296.8,-3.79,-33.83,-34.13,0,*50
1494810169.61,60325,16.06,74292.8,-3.81,-33.77,-34.19,0,*57
1494810170.83,60326,16.06,74294.0,-3.79,-33.95,-34.19,0,*5F
1494810172.06,60327,16.06,74292.8,-3.79,-33.95,-34.35,0,*50
1494810173.3,60328,16.06,74286.0,-3.79,-34.01,-34.47,0,*50
1494810174.55,60329,16.06,74280.8,-3.79,-34.01,-34.31,0,*50
1494810175.78,60330,16.06,74284.0,-3.79,-33.83,-34.19,0,*5F
1494810177.03,60331,16.06,74292.5,-3.79,-34.01,-34.31,0,*59
1494810178.29,60332,16.06,74294.0,-3.79,-34.01,-34.35,0,*5E
1494810179.54,60333,16.06,74298.0,-3.79,-34.01,-34.31,0,*5B
1494810180.77,60334,16.06,74294.3,-3.81,-33.83,-34.25,0,*53
1494810182.02,60335,16.06,74292.3,-3.81,-33.77,-34.07,0,*59
1494810183.25,60336,16.06,74294.5,-3.79,-33.61,-33.95,0,*56
1494810184.48,60337,16.06,74292.0,-3.79,-33.83,-34.19,0,*58
1494810185.74,60338,16.06,74294.0,-3.81,-34.07,-34.35,0,*55
1494810186.98,60339,16.06,74294.3,-3.81,-33.89,-34.25,0,*54
1494810188.21,60340,16.06,74292.3,-3.81,-33.83,-34.25,0,*50
1494810189.42,60341,16.06,74288.5,-3.79,-33.95,-34.13,0,*54
1494810190.68,60342,16.06,74286.5,-3.79,-33.73,-34.01,0,*5C
1494810191.93,60343,16.06,74286.0,-3.77,-33.61,-33.95,0,*5A
1494810193.16,60344,16.06,74288.3,-3.79,-33.55,-33.77,0,*58
1494810194.38,60345,16.06,74294.0,-3.79,-33.61,-33.83,0,*55
1494810195.64,60346,16.06,74298.8,-3.77,-33.73,-33.95,0,*5C
1494810196.85,60347,16.06,74298.8,-3.79,-33.95,-34.13,0,*52
1494810198.07,60348,16.06,74300.5,-3.77,-33.95,-34.13,0,*53
1494810199.33,60349,16.06,74300.0,-3.79,-33.77,-34.01,0,*53
1494810200.58,60350,16.06,74302.3,-3.77,-33.95,-34.19,0,*50
1494810201.83,60351,16.06,74296.3,-3.77,-33.61,-33.83,0,*5E
1494810203.11,60352,16.06,74292.3,-3.77,-33.61,-34.01,0,*50
1494810204.36,60353,16.06,74292.0,-3.77,-33.55,-33.77,0,*50
1494810205.65,60354,16.06,74294.0,-3.77,-33.73,-34.01,0,*55
1494810206.88,60355,16.06,74298.0,-3.77,-33.83,-33.95,0,*51
1494810208.14,60356,16.06,74298.8,-3.77,-33.73,-33.95,0,*5D
1494810209.4,60357,16.06,74296.8,-3.77,-33.73,-33.95,0,*5C
1494810210.63,60358,16.06,74298.5,-3.79,-33.55,-33.77,0,*55
1494810211.89,60359,16.06,74294.8,-3.79,-33.77,-34.01,0,*52
1494810213.11,60360,16.06,74294.0,-3.75,-33.89,-34.07,0,*53
1494810214.35,60361,16.06,74292.8,-3.77,-33.83,-34.13,0,*5F
1494810215.6,60362,16.06,74296.5,-3.79,-34.01,-34.31,0,*5F
1494810216.83,60363,16.06,74294.3,-3.77,-33.83,-34.13,0,*5D
1494810218.08,60364,16.06,74294.8,-3.77,-33.95,-34.19,0,*57
1494810219.36,60365,16.06,74296.3,-3.77,-33.77,-34.01,0,*53
1494810220.62,60366,16.06,74296.0,-3.77,-33.73,-33.95,0,*5E
1494810221.91,60367,16.06,74298.0,-3.77,-33.73,-34.01,0,*55
1494810223.16,60368,16.06,74298.0,-3.77,-33.77,-34.13,0,*5D
1494810224.45,60369,16.06,74302.8,-3.77,-33.73,-34.01,0,*5B
1494810225.71,60370,16.06,74302.0,-3.77,-33.83,-34.01,0,*5C
1494810226.97,60371,16.06,74302.3,-3.77,-34.01,-34.13,0,*53
1494810228.2,60372,16.06,74300.5,-3.77,-33.95,-34.13,0,*5A
1494810229.46,60373,16.06,74296.5,-3.77,-33.73,-33.95,0,*5A
1494810230.68,60374,16.06,74298.0,-3.79,-33.77,-33.95,0,*57
1494810231.95,60375,16.06,74298.8,-3.77,-33.73,-33.83,0,*5B
1494810233.19,60376,16.06,74296.5,-3.77,-33.95,-34.19,0,*54
1494810234.42,60377,16.06,74298.3,-3.77,-33.83,-34.13,0,*58
1494810235.68,60378,16.06,74306.5,-3.77,-34.01,-34.13,0,*5A
1494810236.94,60379,16.06,74304.5,-3.77,-33.73,-33.95,0,*50
1494810238.17,60380,16.06,74300.3,-3.77,-33.55,-33.83,0,*55
1494810239.42,60381,16.06,74300.5,-3.77,-33.61,-33.83,0,*53
1494810240.62,60382,16.06,74304.0,-3.79,-33.55,-33.83,0,*59
1494810241.9,60383,16.06,74302.3,-3.77,-33.77,-34.01,0,*5B
1494810243.15,60384,16.06,74302.8,-3.77,-33.95,-34.19,0,*59
1494810244.4,60385,16.06,74306.8,-3.77,-33.77,-33.95,0,*57
1494810245.69,60386,16.06,74304.0,-3.77,-33.77,-34.01,0,*5E
1494810246.97,60387,16.06,74304.8,-3.77,-33.77,-34.01,0,*5F
1494810248.2,60388,16.06,74302.8,-3.77,-33.83,-34.13,0,*58
1494810249.45,60389,16.06,74304.3,-3.77,-33.77,-34.13,0,*52
1494810250.73,60390,16.06,74306.5,-3.77,-33.77,-34.19,0,*50
1494810251.99,60391,16.06,74306.0,-3.77,-33.73,-33.95,0,*56
1494810253.22,60392,16.06,74304.5,-3.75,-33.77,-34.13,0,*5A
1494810254.5,60393,16.06,74306.5,-3.77,-33.77,-34.01,0,*5A
1494810255.75,60394,16.06,74304.8,-3.77,-33.61,-33.95,0,*50
1494810257.04,60395,16.06,74300.8,-3.77,-33.73,-34.01,0,*58
1494810258.32,60396,16.06,74304.0,-3.77,-33.77,-34.01,0,*5F
1494810259.61,60397,16.06,74306.3,-3.77,-33.73,-34.01,0,*5A
1494810260.85,60398,16.06,74300.0,-3.79,-33.73,-34.13,0,*58
1494810262.05,60399,16.06,74310.0,-3.79,-33.55,-33.95,0,*54
1494810263.32,60400,16.06,74304.5,-3.77,-33.27,-33.61,0,*53
1494810264.58,60401,16.06,74304.0,-3.77,-33.09,-33.55,0,*59
1494810265.83,60402,16.06,74302.8,-3.77,-33.43,-33.83,0,*5F
1494810267.06,60403,16.06,74298.3,-3.77,-33.55,-33.95,0,*5E
1494810268.32,60404,16.06,74298.8,-3.77,-33.37,-33.77,0,*51
1494810269.57,60405,16.06,74292.0,-3.77,-33.55,-34.01,0,*52
1494810270.85,60406,16.06,74290.8,-3.77,-33.61,-34.01,0,*56
1494810272.06,60407,16.06,74290.5,-3.75,-33.67,-34.07,0,*55
1494810273.29,60408,16.06,74292.3,-3.75,-33.77,-34.13,0,*5E
1494810274.51,60409,16.06,74292.0,-3.75,-33.77,-34.25,0,*5A
1494810275.74,60410,16.06,74292.8,-3.75,-33.89,-34.25,0,*53
1494810276.96,60411,16.06,74294.5,-3.75,-33.77,-34.25,0,*53
1494810278.22,60412,16.06,74288.5,-3.73,-33.49,-33.95,0,*57
1494810279.42,60413,16.06,74286.8,-3.75,-33.55,-33.95,0,*5D
1494810280.66,60414,16.06,74288.0,-3.75,-33.73,-33.95,0,*5E
1494810281.89,60415,16.06,74284.8,-3.75,-33.89,-34.13,0,*53
1494810283.16,60416,16.06,74286.0,-3.73,-33.89,-34.31,0,*56
1494810284.37,60417,16.06,74290.8,-3.75,-34.25,-34.47,0,*51
1494810285.65,60418,16.06,74290.5,-3.77,-34.01,-34.35,0,*5F
1494810286.93,60419,16.06,74292.5,-3.77,-34.01,-34.31,0,*5A
1494810288.18,60420,16.06,74292.0,-3.77,-33.83,-34.31,0,*5D
1494810289.41,60421,16.06,74292.3,-3.75,-33.95,-34.31,0,*59
1494810290.61,60422,16.06,74298.0,-3.75,-34.25,-34.47,0,*57
1494810291.82,60423,16.06,74294.3,-3.75,-34.13,-34.59,0,*5C
1494810293.04,60424,16.06,74300.0,-3.79,-34.47,-34.71,0,*5C
1494810294.32,60425,16.06,74296.3,-3.77,-34.19,-34.53,0,*58
1494810295.58,60426,16.06,74296.0,-3.77,-34.31,-34.71,0,*51
1494810296.84,60427,16.06,74296.3,-3.77,-34.31,-34.71,0,*50
1494810298.12,60428,16.06,74294.3,-3.77,-34.19,-34.53,0,*55
1494810299.38,60429,16.06,74294.3,-3.79,-34.31,-34.65,0,*55
1494810300.64,60430,16.06,74298.3,-3.79,-34.19,-34.53,0,*52
1494810301.9,60431,16.06,74294.8,-3.79,-34.31,-34.53,0,*59
1494810303.16,60432,16.06,74296.0,-3.79,-34.19,-34.53,0,*50
1494810304.45,60433,16.06,74298.5,-3.77,-34.19,-34.65,0,*5A
1494810305.66,60434,16.06,74302.8,-3.79,-34.13,-34.47,0,*59
1494810306.89,60435,16.06,74302.3,-3.79,-33.95,-34.31,0,*50
1494810308.09,60436,16.06,74300.3,-3.79,-33.83,-34.13,0,*54
1494810309.35,60437,16.06,74300.5,-3.79,-34.01,-34.35,0,*5C
1494810310.56,60438,16.06,74298.8,-3.79,-34.13,-34.47,0,*55
1494810311.79,60439,16.06,74302.5,-3.79,-34.19,-34.47,0,*5E
1494810313.0,60440,16.06,74300.5,-3.79,-33.83,-34.13,0,*55
1494810314.26,60441,16.06,74300.8,-3.79,-34.01,-34.35,0,*5D
1494810315.51,60442,16.06,74300.5,-3.79,-34.01,-34.31,0,*5A
1494810316.74,60443,16.06,74300.0,-3.81,-33.83,-34.07,0,*54
1494810317.97,60444,16.06,74300.3,-3.83,-34.01,-34.25,0,*5C
1494810319.23,60445,16.06,74300.0,-3.81,-34.01,-34.25,0,*5F
1494810320.48,60446,16.06,74290.0,-3.81,-34.01,-34.41,0,*5E
1494810321.74,60447,16.06,74290.3,-3.81,-34.07,-34.35,0,*5A
1494810322.97,60448,16.06,74290.8,-3.83,-34.01,-34.25,0,*50
1494810324.22,60449,16.06,74292.0,-3.81,-34.19,-34.41,0,*58
1494810325.45,60450,16.06,74290.8,-3.81,-34.07,-34.25,0,*5D
1494810326.66,60451,16.06,74294.3,-3.83,-34.07,-34.41,0,*5C
1494810327.88,60452,16.06,74298.0,-3.83,-33.89,-34.25,0,*5C
1494810329.16,60453,16.06,74294.0,-3.81,-33.77,-34.19,0,*51
1494810330.39,60454,16.06,74296.5,-3.83,-33.83,-34.19,0,*5F
1494810331.64,60455,16.06,74294.0,-3.81,-33.89,-34.25,0,*59
1494810332.89,60456,16.06,74294.8,-3.83,-34.01,-34.35,0,*5E
1494810334.15,60457,16.06,74290.8,-3.83,-34.01,-34.35,0,*5F
1494810335.4,60458,16.06,74294.3,-3.83,-34.01,-34.35,0,*50
1494810336.63,60459,16.06,74288.0,-3.83,-34.07,-34.35,0,*57
1494810337.86,60460,16.06,74290.8,-3.83,-33.77,-34.07,0,*5C
1494810339.09,60461,16.06,74290.0,-3.83,-33.83,-34.19,0,*59
1494810340.34,60462,16.06,74294.8,-3.81,-33.83,-34.19,0,*58
1494810341.6,60463,16.06,74294.3,-3.83,-33.77,-34.19,0,*50
1494810342.82,60464,16.06,74288.8,-3.83,-33.89,-34.25,0,*59
1494810344.02,60465,16.06,74292.8,-3.83,-33.67,-34.07,0,*58
1494810345.26,60466,16.06,74296.3,-3.81,-33.67,-34.07,0,*59
1494810346.49,60467,16.06,74296.3,-3.81,-33.83,-34.07,0,*52
1494810347.7,60468,16.06,74298.0,-3.83,-33.83,-34.07,0,*5F
1494810348.93,60469,16.06,74292.8,-3.83,-33.83,-34.19,0,*51
1494810350.18,60470,16.06,74292.3,-3.81,-33.89,-34.25,0,*5E
1494810351.4,60471,16.06,74292.8,-3.83,-33.89,-34.25,0,*5D
1494810352.65,60472,16.06,74292.0,-3.81,-34.01,-34.41,0,*59
1494810353.91,60473,16.06,74290.0,-3.83,-34.19,-34.53,0,*50
1494810355.15,60474,16.06,74292.5,-3.83,-34.19,-34.71,0,*57
1494810356.44,60475,16.06,74288.5,-3.81,-34.01,-34.53,0,*5D
1494810357.69,60476,16.06,74292.5,-3.83,-33.77,-34.19,0,*54
1494810358.89,60477,16.06,74290.5,-3.83,-33.83,-34.25,0,*51
1494810360.15,60478,16.06,74284.0,-3.83,-34.01,-34.35,0,*52
1494810361.41,60479,16.06,74284.8,-3.83,-34.01,-34.53,0,*53
1494810362.64,60480,16.06,74282.0,-3.83,-34.19,-34.59,0,*56
1494810363.85,60481,16.06,74286.0,-3.83,-34.25,-34.59,0,*58
1494810365.08,60482,16.06,74288.0,-3.83,-34.35,-34.59,0,*5A
1494810366.31,60483,16.06,74292.5,-3.87,-34.25,-34.65,0,*51
1494810367.55,60484,16.06,74288.5,-3.83,-34.53,-34.71,0,*56
1494810368.83,60485,16.06,74288.5,-3.81,-33.89,-34.19,0,*5B
1494810370.08,60486,16.06,74286.5,-3.81,-33.83,-34.19,0,*52
1494810371.3,60487,16.06,74284.0,-3.83,-33.89,-34.25,0,*54
1494810372.56,60488,16.06,74290.5,-3.83,-34.01,-34.19,0,*53
1494810373.79,60489,16.06,74284.5,-3.83,-34.01,-34.25,0,*5D
1494810375.03,60490,16.06,74286.3,-3.83,-33.89,-34.19,0,*5D
1494810376.24,60491,16.06,74288.0,-3.83,-34.25,-34.59,0,*59
1494810377.47,60492,16.06,74284.0,-3.83,-34.07,-34.35,0,*50
1494810378.71,60493,16.06,74288.0,-3.83,-34.07,-34.53,0,*51
1494810379.95,60494,16.06,74286.5,-3.83,-34.07,-34.53,0,*56
1494810381.18,60495,16.06,74290.3,-3.83,-34.19,-34.59,0,*52
1494810382.39,60496,16.06,74284.8,-3.87,-34.07,-34.41,0,*53
1494810383.59,60497,16.06,74288.5,-3.87,-34.07,-34.41,0,*52
1494810384.82,60498,16.06,74292.0,-3.83,-34.19,-34.59,0,*5F
1494810386.06,60499,16.06,74292.5,-3.83,-34.53,-34.77,0,*5C
1494810387.27,60500,16.06,74294.0,-3.83,-34.41,-34.77,0,*5E
1494810388.51,60501,16.06,74290.8,-3.87,-34.31,-34.77,0,*5C
1494810389.74,60502,16.06,74290.0,-3.87,-34.13,-34.35,0,*59
1494810390.94,60503,16.06,74288.0,-3.87,-33.83,-34.25,0,*57
1494810392.14,60504,16.06,74288.8,-3.87,-34.07,-34.25,0,*5B
1494810393.38,60505,16.06,74292.8,-3.89,-34.13,-34.47,0,*55
1494810394.61,60506,16.06,74292.0,-3.87,-33.89,-34.25,0,*58
1494810395.8,60507,16.06,74294.8,-3.87,-34.25,-34.41,0,*5A
1494810397.01,60508,16.06,74298.0,-3.87,-33.83,-34.13,0,*59
1494810398.21,60509,16.06,74296.3,-3.87,-33.95,-34.25,0,*5A
1494810399.44,60510,16.06,74288.5,-3.87,-34.07,-34.31,0,*5B
1494810400.67,60511,16.06,74294.8,-3.87,-34.07,-34.31,0,*5A
1494810401.91,60512,16.06,74292.0,-3.87,-34.31,-34.47,0,*5D
1494810403.13,60513,16.06,74292.8,-3.87,-33.89,-34.25,0,*5C
1494810404.34,60514,16.06,74296.3,-3.87,-34.07,-34.41,0,*58
1494810405.56,60515,16.06,74296.8,-3.87,-33.89,-34.07,0,*5A
1494810406.79,60516,16.06,74294.5,-3.87,-33.89,-34.13,0,*5C
1494810407.99,60517,16.06,74296.5,-3.87,-34.25,-34.41,0,*5B
1494810409.2,60518,16.06,74296.0,-3.87,-34.25,-34.47,0,*52
1494810410.46,60519,16.06,74296.3,-3.89,-34.35,-34.71,0,*59
1494810411.69,60520,16.06,74296.0,-3.87,-33.89,-34.07,0,*5C
1494810412.92,60521,16.06,74292.0,-3.87,-34.07,-34.31,0,*59
1494810414.19,60522,16.06,74292.0,-3.89,-34.19,-34.47,0,*5A
1494810415.44,60523,16.06,74290.5,-3.89,-33.95,-34.31,0,*59
1494810416.67,60524,16.06,74290.8,-3.87,-34.07,-34.31,0,*5C
1494810417.96,60525,16.06,74292.5,-3.89,-34.01,-34.35,0,*51
1494810419.16,60526,16.06,74292.5,-3.87,-33.83,-34.25,0,*50
1494810420.39,60527,16.06,74292.8,-3.87,-34.07,-34.31,0,*5F
1494810421.62,60528,16.06,74294.0,-3.87,-34.07,-34.31,0,*50
1494810422.91,60529,16.06,74292.0,-3.89,-34.31,-34.53,0,*5E
1494810424.2,60530,16.06,74292.3,-3.89,-34.19,-34.53,0,*5C
1494810425.47,60531,16.06,74292.8,-3.89,-33.73,-33.95,0,*5B
1494810426.69,60532,16.06,74294.3,-3.87,-33.89,-34.07,0,*5F
1494810427.9,60533,16.06,74294.8,-3.87,-34.07,-34.25,0,*5F
1494810429.16,60534,16.06,74292.8,-3.89,-33.73,-33.95,0,*5E
1494810430.39,60535,16.06,74290.5,-3.87,-34.07,-34.31,0,*5C
1494810431.59,60536,16.06,74290.3,-3.87,-33.95,-34.25,0,*56
1494810432.88,60537,16.06,74290.5,-3.89,-34.01,-34.31,0,*56
1494810434.13,60538,16.06,74296.5,-3.89,-33.61,-33.95,0,*51
1494810435.39,60539,16.06,74294.3,-3.89,-33.61,-33.95,0,*50
1494810436.65,60540,16.06,74294.0,-3.89,-33.55,-33.73,0,*51
1494810437.88,60541,16.06,74290.5,-3.87,-33.73,-34.07,0,*5E
1494810439.09,60542,16.06,74290.5,-3.87,-33.83,-34.13,0,*57
1494810440.3,60543,16.06,74294.8,-3.87,-33.95,-34.13,0,*51
1494810441.53,60544,16.06,74296.8,-3.87,-33.73,-33.95,0,*57
1494810442.79,60545,16.06,74300.3,-3.89,-33.55,-33.89,0,*51
1494810443.99,60546,16.06,74296.3,-3.87,-33.55,-34.07,0,*5D
1494810445.25,60547,16.06,74286.8,-3.89,-33.77,-34.13,0,*57
1494810446.51,60548,16.06,74290.8,-3.89,-33.95,-34.31,0,*54
1494810447.76,60549,16.06,74288.5,-3.89,-33.95,-34.19,0,*5F
1494810448.98,60550,16.06,74286.3,-3.87,-34.07,-34.47,0,*5E
1494810450.18,60551,16.06,74288.8,-3.87,-34.07,-34.41,0,*59
1494810451.39,60552,16.06,74294.5,-3.87,-34.13,-34.47,0,*59
1494810452.6,60553,16.06,74292.8,-3.87,-34.13,-34.41,0,*5E
1494810453.8,60554,16.06,74296.0,-3.87,-33.83,-34.25,0,*55
1494810455.0,60555,16.06,74296.3,-3.87,-33.67,-33.95,0,*52
1494810456.24,60556,16.06,74292.3,-3.87,-33.49,-33.83,0,*5A
1494810457.49,60557,16.06,74282.5,-3.89,-33.95,-34.19,0,*50
1494810458.78,60558,16.06,74284.3,-3.89,-34.01,-34.19,0,*55
1494810460.01,60559,16.06,74286.5,-3.87,-33.67,-33.89,0,*53
1494810461.24,60560,16.06,74286.3,-3.87,-33.73,-33.95,0,*51
1494810462.52,60561,16.06,74290.3,-3.89,-33.89,-34.19,0,*58
1494810463.73,60562,16.06,74288.0,-3.87,-33.83,-34.13,0,*55
1494810464.98,60563,16.06,74294.3,-3.89,-33.95,-34.19,0,*57
1494810466.21,60564,16.06,74292.3,-3.87,-33.89,-34.13,0,*59
1494810467.44,60565,16.06,74292.5,-3.87,-34.07,-34.31,0,*59
1494810468.72,60566,16.06,74292.3,-3.89,-33.89,-34.31,0,*55
1494810469.93,60567,16.06,74294.0,-3.87,-33.67,-33.95,0,*53
1494810471.13,60568,16.06,74294.5,-3.87,-33.67,-33.95,0,*5C
1494810472.34,60569,16.06,74298.8,-3.83,-33.83,-34.07,0,*5F
1494810473.59,60570,16.06,74296.3,-3.83,-33.89,-34.19,0,*52
1494810474.84,60571,16.06,74296.5,-3.83,-34.01,-34.19,0,*54
1494810476.09,60572,16.06,74292.3,-3.83,-33.77,-34.19,0,*51
1494810477.29,60573,16.06,74290.8,-3.87,-34.25,-34.41,0,*59
1494810478.54,60574,16.06,74292.8,-3.89,-34.13,-34.47,0,*53
1494810479.73,60575,16.06,74292.0,-3.87,-34.25,-34.41,0,*5F
1494810480.95,60576,16.06,74292.8,-3.87,-34.07,-34.47,0,*5A
1494810482.16,60577,16.06,74294.0,-3.87,-34.13,-34.47,0,*5E
1494810483.41,60578,16.06,74294.5,-3.87,-34.19,-34.35,0,*5E
1494810484.67,60579,16.06,74294.8,-3.89,-33.95,-34.31,0,*56
1494810485.87,60580,16.06,74292.3,-3.87,-34.13,-34.41,0,*50
1494810487.16,60581,16.06,74294.5,-3.89,-34.01,-34.35,0,*5F
1494810488.42,60582,16.06,74292.5,-3.89,-34.13,-34.35,0,*5F
1494810489.7,60583,16.06,74296.0,-3.89,-34.19,-34.53,0,*54
1494810490.92,60584,16.06,74296.3,-3.87,-34.13,-34.47,0,*52
1494810492.14,60585,16.06,74298.3,-3.91,-33.95,-34.31,0,*5C
1494810493.44,60586,16.06,74294.5,-3.89,-33.73,-34.01,0,*5D
1494810494.71,60587,16.06,74294.5,-3.89,-33.73,-34.13,0,*5F
1494810495.94,60588,16.06,74294.0,-3.87,-33.73,-33.95,0,*57